Location: Unspecified
(0.0000°N, 0.0000°E)
Time: 01:22:08
(UTC+00:00)

Altair - Pass Details

Date: 27 November 2019
Orbit: 1502 x 1682 km, 47.2° (Epoch: 10 December)

Event Time Altitude Azimuth Distance (km) Brightness Sun altitude
Rises 21:56:29 0° 229° (SW) 4,847 10.7 -55.6°
Reaches altitude 10° 21:59:43 10° 232° (SW) 3,835 10.0 -56.2°
Enters shadow 22:02:41 22° 238° (WSW) 2,948 9.2 -56.7°
